Location: Unspecified
(0.0000°N, 0.0000°E)
Time: 14:56:36
(UTC+00:00)

FENGYUN 1C DEB - Pass Details

Date: 22 February 2026
Orbit: 819 x 963 km, 99.2° (Epoch: 3 October)

Event Time Altitude Azimuth Distance (km) Brightness Sun altitude
Rises 05:08:08 0° 186° (S) 3,500 ? -16.1°
Reaches altitude 10° 05:10:50 10° 196° (SSW) 2,537 ? -15.4°
Maximum altitude 05:15:40 30° 256° (WSW) 1,492 ? -14.2°
Enters shadow 05:19:47 13° 312° (NW) 2,264 ? -13.2°
